Weather History for PASO - February, 2014

Change the Weather History Date:

Saturday, February 1, 2014

  Actual Average (PAHO) Record (PAHO)
Temperature  
Mean Temperature 29 °F -  
Max Temperature 33 °F 31 °F 46 °F (1940)
Min Temperature 25 °F 18 °F -16 °F (1947)
Degree Days  
Heating Degree Days 36    
Moisture  
Dew Point 27 °F    
Average Humidity 96    
Maximum Humidity 100    
Minimum Humidity 92    
Precipitation  
Precipitation 0.00 in - - ()
Sea Level Pressure  
Sea Level Pressure 30.34 in    
Wind  
Wind Speed 0 mph (North)    
Max Wind Speed 0 mph    
Max Gust Speed -    
Visibility 10 miles    
Events      
Averages and records for this station are not official NWS values.
T = Trace of Precipitation, MM = Missing Value Source: NWS Daily Summary

Daily Weather History Graph

Daily Weather History Graph

Search for Another Location

Airport or City:

Trip Planner

Search our weather history database for the weather conditions in past years. The results will help you decide how hot, cold, wet, or windy it might be!

Date:

Astronomy

Feb. 01, 2014 Rise Set
Actual Time 9:16 AM AKST 5:24 PM AKST
Civil Twilight 8:30 AM AKST 6:11 PM AKST
Nautical Twilight 7:41 AM AKST 7:00 PM AKST
Astronomical Twilight 6:53 AM AKST 7:48 PM AKST
Moon 9:27 AM AKST (2/1) 9:05 PM AKST (2/1)
Length of Visible Light 9h 40m
Length of Day
8h 07m
Waxing Crescent, 6% of the Moon is Illuminated
Feb 1
Waxing Crescent
Feb 6
First Quarter
Feb 14
Full
Feb 22
Last Quarter
Feb 28
New

Hourly Weather History & Observations

Time (AKST) Temp. Dew Point Humidity Pressure Visibility Wind Dir Wind Speed Gust Speed Precip Events Conditions
12:53 AM 28.0 °F 27.0 °F 96% 30.30 in 10.0 mi Calm Calm - N/A   Clear
1:53 AM 27.0 °F 26.1 °F 96% 30.30 in 10.0 mi Calm Calm - N/A   Clear
2:53 AM 27.0 °F 26.1 °F 96% 30.30 in 10.0 mi Calm Calm - N/A   Mostly Cloudy
3:53 AM 27.0 °F 26.1 °F 96% 30.31 in 10.0 mi Calm Calm - N/A   Overcast
5:53 AM 26.1 °F 25.0 °F 96% 30.31 in 10.0 mi Calm Calm - N/A   Clear
6:22 AM 26.6 °F 24.8 °F 93% 30.32 in 10.0 mi Calm Calm - N/A   Mostly Cloudy
6:46 AM 26.6 °F 24.8 °F 93% 30.32 in 10.0 mi Calm Calm - N/A   Scattered Clouds
6:53 AM 25.0 °F 24.1 °F 96% 30.32 in 10.0 mi Calm Calm - N/A   Partly Cloudy
7:53 AM 26.1 °F 25.0 °F 96% 30.33 in 10.0 mi Calm Calm - N/A   Clear
8:53 AM 26.1 °F 25.0 °F 96% 30.32 in 10.0 mi Calm Calm - N/A   Clear
9:53 AM 25.0 °F 24.1 °F 96% 30.34 in 10.0 mi Calm Calm - N/A   Clear
10:53 AM 27.0 °F 26.1 °F 96% 30.35 in 10.0 mi Calm Calm - N/A   Clear
11:53 AM 28.0 °F 27.0 °F 96% 30.35 in 10.0 mi Calm Calm - N/A   Partly Cloudy
12:53 PM 30.0 °F 28.9 °F 96% 30.35 in 10.0 mi Calm Calm - N/A   Overcast
1:53 PM 32.0 °F 30.9 °F 96% 30.36 in 10.0 mi Calm Calm - N/A   Overcast
2:53 PM 33.1 °F 32.0 °F 96% 30.36 in 10.0 mi Calm Calm - N/A   Mostly Cloudy
3:53 PM 32.0 °F 32.0 °F 100% 30.35 in 9.0 mi Calm Calm - N/A   Clear
4:53 PM 32.0 °F 30.9 °F 96% 30.36 in 6.0 mi Calm Calm - N/A   Partly Cloudy
5:53 PM 30.0 °F 30.0 °F 100% 30.37 in 10.0 mi Calm Calm - N/A   Clear
6:53 PM 30.0 °F 28.0 °F 92% 30.36 in 10.0 mi Calm Calm - N/A   Clear
7:53 PM 28.9 °F 28.0 °F 96% 30.37 in 10.0 mi Calm Calm - N/A   Clear
8:53 PM 28.0 °F 27.0 °F 96% 30.37 in 10.0 mi Calm Calm - N/A   Overcast
9:53 PM 28.0 °F 27.0 °F 96% 30.37 in 10.0 mi Calm Calm - N/A   Clear
10:53 PM 27.0 °F 26.1 °F 96% 30.37 in 10.0 mi Calm Calm - N/A   Clear
11:53 PM 27.0 °F 26.1 °F 96% 30.38 in 10.0 mi Calm Calm - N/A   Clear